Location: Unspecified
(0.0000°N, 0.0000°E)
Time: 03:12:54
(UTC+00:00)

deb Centaur AC-2 - Pass Details

Date: 11 August 2024
Orbit: 582 x 982 km, 29.9° (Epoch: 09 September)

Event Time Altitude Azimuth Distance (km) Brightness Sun altitude
Exits shadow 04:37:59 25° 299° (WNW) 1,818 ? -21.0°
Maximum altitude 04:39:56 30° 329° (NNW) 1,637 ? -20.5°
Drops below altitude 10° 04:45:21 10° 28° (NNE) 2,572 ? -19.2°
Sets 04:48:10 0° 39° (NE) 3,447 ? -18.6°
